Location: *
(40.9167°N, 9.5000°E)
Time: 09:07:38
(UTC+00:00)

SL-24 R/B - Pass Details

Date: 09 April 2020
Orbit: 505 x 1003 km, 97.4° (Epoch: 03 June)

Event Time Altitude Azimuth Distance (km) Brightness Sun altitude
Rises 18:47:43 0° 20° (NNE) 2,783 7.4 -10.3°
Reaches altitude 10° 18:50:05 10° 30° (NNE) 1,826 6.4 -10.7°
Maximum altitude 18:53:38 34° 96° (E) 868 4.3 -11.3°
Drops below altitude 10° 18:57:00 10° 164° (SSE) 1,717 6.0 -11.9°
Sets 18:59:09 0° 173° (S) 2,590 7.0 -12.3°
